Preview of NWS' New Version of Forecast
This preview is not operational and should not be used for support decisions.

Regional Weather Roundup (RWR)

Issued by National Weather Service (NWS)

                            
000
ASUS44 KMEG 190810
RWRTN 
TENNESSEE HOURLY STATE WEATHER ROUNDUP
NATIONAL WEATHER SERVICE MEMPHIS TN
300 AM CDT FRI APR 19 2019

TNZ002-004-019-021-049-052-054-088>092-190900-
WEST TENNESSEE
  
CITY           SKY/WX    TMP DP  RH WIND       PRES   REMARKS
MEMPHIS INTL   CLOUDY    48  46  93 NW12G22   29.66F                  
NWS MEMPHIS      N/A     47 N/A N/A MISG        N/A                   
JACKSON        LGT RAIN  47  46  97 N16G23    29.61F FOG              
DYERSBURG      LGT RAIN  47  45  93 N15G23    29.66S                  
SOMERVILLE     CLOUDY    48  46  93 NW13G22   29.61F FOG              
COVINGTON      CLOUDY    48  46  93 N18G29    29.64F                  
UNION CITY     CLOUDY    48  48 100 N14       29.62S FOG              
BOLIVAR        CLOUDY    48  46  93 NW12G23   29.59F FOG              
PARIS          CLOUDY    48  46  93 N13G23    29.57F FOG              
HUNTINGDON     CLOUDY    48  46  93 N9        29.58S FOG              
LEXINGTON      CLOUDY    50  48  93 N14       29.53F FOG              
SELMER         CLOUDY    48  46  93 N10G25    29.54S FOG              
SAVANNAH       CLOUDY    52  52 100 N10       29.53R FOG              
$$

TNZ008-025-027-028-033-062-065-066-190900-
NORTH MIDDLE TENNESSEE
  
CITY           SKY/WX    TMP DP  RH WIND       PRES   REMARKS
NASHVILLE      CLOUDY    59  57  93 S5        29.52S                  
DICKSON        CLOUDY    50  50 100 NW13G20   29.52R FOG              
PORTLAND       CLOUDY    59  59 100 S5        29.50F                  
CLARKSVILLE    LGT RAIN  50  46  86 N15       29.55F FOG              
LEBANON        CLOUDY    59  59 100 SW3       29.51S                  
SMYRNA         CLOUDY    59  58  96 CALM      29.53F                  
MURFREESBORO   CLOUDY    59  57  94 S3        29.51R                  
COOKEVILLE     CLOUDY    61  59  94 SW6       29.51F                  
LIVINGSTON     CLOUDY    61  59  94 S9        29.50F                  
GALLATIN       CLOUDY    59  59 100 CALM      29.54F                  
CROSSVILLE     MOCLDY    59  57  93 S9        29.57F                  
ROCKWOOD       CLOUDY    59  59 100 S10       29.59F FOG              
$$

TNZ061-075-076-078-094-096-097-190900-
SOUTH MIDDLE TENNESSEE
  
CITY           SKY/WX    TMP DP  RH WIND       PRES   REMARKS
LAWRENCEBURG   CLOUDY    57  57 100 VRB6      29.51F FOG              
LEWISBURG      CLOUDY    57  57 100 CALM      29.51F FOG              
FAYETTEVILLE   CLOUDY    61  61 100 S13       29.52F                  
TULLAHOMA      CLOUDY    59  57  94 S9        29.52F                  
WINCHESTER     CLOUDY    61  59  94 S7        29.53F                  
MCMINNVILLE    CLOUDY    59  57  94 CALM      29.52F                  
COLUMBIA       CLOUDY    57  57 100 CALM      29.49F                  
SHELBYVILLE    CLOUDY    57  57 100 CALM      29.52F                  
$$

TNZ017-018-042-046-047-190900-
NORTHEAST TENNESSEE
  
CITY           SKY/WX    TMP DP  RH WIND       PRES   REMARKS
TRI CITIES     CLOUDY    71  51  49 S8        29.64F                  
ELIZABETHTON   MOCLDY    72  50  46 S8        29.65F                  
GREENEVILLE    CLOUDY    68  55  64 VRB3      29.63F                  
$$

TNZ012-013-036-069-073-074-190900-
CENTRAL EAST TENNESSEE
  
CITY           SKY/WX    TMP DP  RH WIND       PRES   REMARKS
KNOXVILLE      HVY RAIN  62  58  86 S6        29.60F FOG              
OAK RIDGE      LGT RAIN  63  59  87 VRB3      29.62F                  
GATLINBURG     CLOUDY    64  57  77 CALM      29.59F                  
MORRISTOWN     CLOUDY    63  59  88 S3        29.60F                  
JACKSBORO      CLOUDY    63  59  88 S10G16    29.61F                  
$$

TNZ083-085-099-190900-
SOUTHEAST TENNESSEE
  
CITY           SKY/WX    TMP DP  RH WIND       PRES   REMARKS
CHATTANOOGA    HVY RAIN  62  60  93 CALM      29.57F FOG              
DAYTON         PTSUNNY   63  61  94 VRB5G12   29.57F FOG              
$$

SKY/WX REPORTED AS FAIR MEANS FEW OR NO CLOUDS BELOW
12 THOUSAND FEET.